Location: Boughton Malherbe
(51.2000°N, 0.7000°E)
Time: 16:33:59
(UTC+00:00)

Daily predictions for brighter satellites

Satellite Brightness Start Highest point End
(mag) Time Altitude Azimuth Time Altitude Azimuth Time Altitude Azimuth
Cosmos 1544 Rocket 4.3 20:59:02 10° N 21:03:08 39° ENE 21:07:12 10° SE
FALCON 9 DEB 3.7 21:02:54 10° SSW 21:05:50 32° SSE 21:08:48 10° E
SL-8 R/B 3.9 21:02:44 10° WSW 21:07:24 52° SSE 21:12:06 10° E
Terra 2.2 21:03:30 10° SE 21:08:08 54° ENE 21:12:47 10° N
Cosmos 1980 Rocket 4.5 21:05:15 10° N 21:08:50 17° NNE 21:12:26 10° ENE
USA 267 3.6 21:03:44 10° ENE 21:09:54 42° SE 21:16:02 10° SSW
Cosmos 1455 2.9 21:07:22 10° N 21:10:57 39° ENE 21:14:32 10° SE
Cosmos 2369 Rocket 3.9 21:07:21 10° NW 21:11:58 27° WSW 21:16:34 10° SSW
Meteor 1-24 Rocket 3.9 21:07:54 10° SSE 21:13:00 50° E 21:18:12 10° NNE
Cosmos 1697 Rocket 4.4 21:09:28 10° NNW 21:14:00 24° NE 21:18:31 10° E
Cosmos 2315 Rocket 4.1 21:07:57 10° S 21:14:13 66° E 21:20:29 10° NNE
NOSS 2-1 (C) 4.3 21:11:39 10° NW 21:15:42 54° NE 21:21:17 10° ESE
RESURS DK-1 4.5 21:15:09 10° N 21:18:12 19° NE 21:21:14 10° E
Cosmos 1371 Rocket 4.4 21:13:45 10° S 21:18:42 46° ESE 21:23:44 10° NE
Spot 2 Rocket 3.6 21:16:14 10° SSE 21:21:19 84° WSW 21:26:28 10° NNW
NOSS 2-1 (D) 4.1 21:21:57 10° NW 21:26:05 63° NE 21:31:51 10° SE
CZ-4B R/B 3.3 21:23:47 10° N 21:26:18 26° WNW 21:28:47 10° SW
Lacrosse 5 rocket 1.2 21:23:48 10° WNW 21:27:38 89° SW 21:31:41 10° ESE
Cosmos 1709 Rocket 4.2 21:21:52 10° NNW 21:28:01 74° W 21:34:13 10° S
ARIANE 5 R/B 2.9 21:23:39 10° SSE 21:28:04 62° ENE 21:32:29 10° N
SPOT 3 Rocket 4.3 21:24:15 10° S 21:29:16 51° W 21:34:22 10° NNW
Cosmos 2074 Rocket 4.3 21:30:04 10° N 21:36:16 55° ENE 21:42:02 12° SSE
ATLAS 2AS CENTAUR R/B 2.8 21:31:04 10° NW 21:38:22 86° NE 21:44:51 11° SE
Cosmos 1624 Rocket 4.1 21:35:17 10° S 21:40:27 62° ESE 21:45:37 10° NNE
Cosmos 1656 4.1 21:36:24 10° NNW 21:41:44 53° NE 21:46:54 11° SE
Cosmos 1190 Rocket 4.4 21:37:15 10° NNW 21:42:31 61° WSW 21:47:39 10° S
ASTRO F (AKARI) 4.5 21:42:15 13° SSE 21:45:22 89° ENE 21:48:56 10° NNW
USA 234 3.3 21:39:20 10° ESE 21:45:56 82° SSW 21:52:32 10° WNW
Cosmos 1833 Rocket 4.3 21:44:37 11° SE 21:47:37 16° E 21:51:00 10° ENE
Cosmos 1455 Rocket 4.1 21:45:39 10° NNW 21:49:45 40° W 21:53:48 10° SSW
Cosmos 2154 Rocket 4.3 21:49:27 10° N 21:55:36 55° ENE 22:00:52 14° SSE
SPOT 5 3.7 21:52:38 10° SSW 21:56:53 40° W 22:01:01 10° NNW
Cosmos 1271 Rocket 3.0 21:53:50 10° NNW 21:57:49 68° W 22:01:16 13° S
Cosmos 2056 Rocket 3.6 21:54:45 10° SSW 22:00:08 87° ESE 22:05:36 10° NNE
Meteor 2-5 Rocket 4.2 21:56:44 10° SSW 22:02:12 62° WNW 22:07:44 10° N
Cosmos 1741 Rocket 4.5 21:57:19 10° NNW 22:02:34 56° ENE 22:07:02 14° SE
Cosmos 1025 Rocket 3.9 21:59:01 10° SSW 22:03:09 49° WNW 22:07:21 10° N
Cosmos 2344 4.4 21:58:34 10° NW 22:06:53 66° NE 22:18:17 10° ESE
Cosmos 676 Rocket 4.4 22:03:45 10° NNW 22:09:00 59° WSW 22:13:24 14° S
ERS-1 Rocket 4.1 22:05:06 10° SSW 22:09:48 39° W 22:14:32 10° NNW
Cosmos 1420 Rocket 4.0 22:07:09 10° SSW 22:12:24 89° ESE 22:17:43 10° NNE
Cosmos 1536 Rocket 3.5 22:13:47 13° S 22:17:36 85° ESE 22:21:59 10° NNE
Cosmos 1607 3.9 22:11:28 10° SSW 22:17:41 78° SE 22:23:53 10° NE
CZ-2C R/B 4.4 22:13:32 10° N 22:18:06 55° WNW 22:22:32 10° SW
Lacrosse 5 2.0 22:19:01 10° WNW 22:24:05 63° SW 22:27:56 17° SE
Cosmos 1606 Rocket 3.8 22:20:15 10° N 22:24:32 58° ENE 22:27:26 20° SSE
NOSS 2-1 (E) 4.1 22:20:16 10° NW 22:24:43 64° SW 22:29:25 17° SSE
SAR-Lupe-4 3.5 22:23:08 10° NNE 22:26:44 79° ESE 22:29:20 18° S
Cosmos 2184 Rocket 4.2 22:22:28 10° NNW 22:28:37 71° W 22:33:50 15° S
Cosmos 724 4.3 22:25:26 10° SSW 22:31:08 61° ESE 22:36:50 10° NE
Tiangong 3.5 22:32:13 10° SW 22:32:27 11° SW 22:32:27 11° SW
Cosmos 1850 Rocket 4.0 22:30:06 10° NNW 22:35:22 84° WSW 22:39:02 20° SSE
Lacrosse 4 Rocket 4.4 22:33:49 10° W 22:36:43 18° NW 22:39:36 10° NNE
Cosmos 2228 3.1 22:34:05 10° NNW 22:38:19 70° W 22:41:10 20° S
Cosmos 1328 4.2 22:37:11 22° SSE 22:39:30 49° E 22:43:25 10° NNE
Meteor 1-21 Rocket 4.2 22:35:48 17° S 22:40:10 72° E 22:45:48 10° NNE
Cosmos 2341 Rocket 4.4 22:34:05 10° N 22:40:22 57° ENE 22:45:04 18° SSE
SL-16 R/B 4.5 22:36:32 10° NNW 22:40:39 20° NNE 22:44:43 10° E
Cosmos 1703 3.4 22:38:48 16° SSW 22:41:48 71° WNW 22:45:39 10° N
FALCON 9 DEB 3.1 22:38:40 10° WSW 22:41:56 78° NNW 22:45:13 10° ENE
SAR-Lupe-1 4.5 22:38:43 10° N 22:42:15 61° WNW 22:45:12 14° SSW
Cosmos 1408 3.8 22:43:33 20° SE 22:44:53 25° E 22:47:48 10° NNE
Cosmos 1455 4.3 22:43:23 10° NW 22:46:10 20° W 22:48:58 10° SW
Terra 3.7 22:42:27 10° SW 22:46:12 23° W 22:50:00 10° NW
Cosmos 1825 4.2 22:46:54 13° ESE 22:48:27 16° E 22:50:44 10° NE
ALOS 2 3.1 22:46:37 19° SE 22:49:31 50° ENE 22:53:47 10° N
SL-8 R/B 3.7 22:44:55 10° W 22:49:41 63° S 22:54:28 10° ESE
Cosmos 1726 Rocket 3.5 22:46:39 10° N 22:50:59 82° ENE 22:53:36 23° SSE
USA 267 3.3 22:46:44 10° ENE 22:53:18 83° NNW 22:59:52 10° WSW
Cosmos 1980 Rocket 2.9 22:48:40 10° NNW 22:54:15 51° NE 22:59:14 13° SE
RESURS DK-1 2.3 22:52:32 10° NW 22:56:42 77° WSW 22:59:03 25° SSE
Cosmos 1697 Rocket 2.7 22:53:04 10° NNW 22:58:45 89° WSW 23:02:42 20° SSE
Cosmos 1331 Rocket 4.2 22:57:22 20° S 23:00:58 60° ESE 23:06:12 10° NNE
Cosmos 1452 Rocket 3.5 22:57:19 13° SSW 23:02:04 85° WNW 23:07:23 10° NNE
Lacrosse 5 rocket 2.9 23:03:22 10° W 23:06:16 20° SW 23:07:17 18° SSW
Spot 4 3.9 23:04:25 23° S 23:07:26 74° WSW 23:12:14 10° NNW
ASTEX 1 3.7 23:02:52 10° N 23:07:51 67° W 23:11:36 18° SSW
Cosmos 1892 3.3 23:06:34 26° SSE 23:08:11 41° E 23:11:45 10° NNE
ERS-2 3.5 23:05:12 10° NE 23:08:14 25° E 23:09:26 21° SE
USA 276 3.4 23:10:14 22° ESE 23:10:14 22° ESE 23:11:41 10° E
Cosmos 2084 3.7 23:05:33 10° WSW 23:09:21 61° NW 23:13:14 10° NE
Cosmos 2084 Rocket 4.1 23:05:36 10° NW 23:09:21 47° NE 23:13:11 10° ESE
ADEOS Rocket 3.5 23:05:35 19° SSE 23:10:54 78° ENE 23:18:31 10° NNW
Cosmos 2058 Rocket 3.0 23:09:49 10° N 23:14:14 83° E 23:16:43 26° SSE
Cosmos 1110 Rocket 4.0 23:15:12 18° SSW 23:19:12 87° ESE 23:24:32 10° NNE
Cosmos 2181 Rocket 4.2 23:15:18 21° SSE 23:19:19 59° E 23:25:24 10° NNE
GP-B 3.4 23:15:53 10° N 23:20:16 61° W 23:23:05 21° SSW
Cosmos 2360 4.3 23:15:42 10° NW 23:21:23 66° WSW 23:25:00 23° S
Cosmos 2278 4.4 23:16:40 10° NNW 23:22:17 51° NE 23:27:31 12° SE
Cosmos 2322 Rocket 4.2 23:18:23 10° NNW 23:23:01 25° NE 23:27:39 10° E
Cosmos 1302 Rocket 4.4 23:21:10 24° SSE 23:24:01 47° ESE 23:29:01 10° NE
Cosmos 1892 Rocket 3.6 23:22:22 23° SSW 23:25:05 81° W 23:29:31 10° N
Cosmos 864 Rocket 4.5 23:20:56 10° N 23:27:09 81° E 23:31:19 22° SSE
ATLAS 2AS CENTAUR R/B 4.0 23:22:52 10° WNW 23:28:28 26° WSW 23:32:16 16° SSW
USA 234 4.1 23:26:12 20° S 23:29:34 31° SW 23:35:17 10° WNW
Cosmos 1833 Rocket 2.6 23:26:17 17° SSW 23:30:42 87° ESE 23:36:23 10° NNE
BREEZE-M DEB (TANK) 3.7 23:36:06 10° W 23:39:22 73° S 23:51:47 10° ESE
Okean 1-7 Rocket 3.7 23:39:49 27° S 23:42:06 64° E 23:46:33 10° NNE
Cosmos 1626 Rocket 3.8 23:42:03 27° SSE 23:44:12 58° E 23:48:28 10° NNE
Cosmos 2082 Rocket 2.5 23:41:32 24° S 23:44:51 52° ESE 23:50:23 10° NE
Cosmos 1821 Rocket 4.3 23:40:08 10° N 23:46:25 61° ENE 23:50:56 19° SSE
Meteor 1-27 4.2 23:42:15 10° NNW 23:47:52 83° W 23:51:21 24° S
Cosmos 1869 3.1 23:45:15 10° N 23:49:08 87° W 23:50:55 31° S
ATLAS 5 CENTAUR R/B 3.4 23:51:03 12° ESE 23:51:32 12° ESE 23:53:06 10° E
Cosmos-2242 3.5 23:50:47 10° N 23:54:58 51° ENE 23:57:29 22° SE
BREEZE-M DEB (TANK) 3.8 23:47:05 10° SW 23:56:20 48° SSE 23:59:33 10° E
